Wind_Speed
8 11 12 12 12 13 13 13 14 16 15 16 17 16 15 15 14 15 15 14 14 14 14 15 15 14 13 12 13 12 10 9 8 8 8 8 8 8 8 9 9 9 8 8 9 8 7 7 7 8 8 7 7 7 7 7 7 6 6 5 4 4 3
9 12 13 12 13 14 15 14 15 15 16 17 16 15 14 14 13 14 14 14 14 13 13 14 14 14 14 13 12 10 9 9 9 9 9 8 8 8 8 9 9 9 8 8 8 8 8 7 7 8 8 7 8 7 7 7 6 5 4 4 4 4 4
10 13 13 13 13 14 15 15 15 15 16 17 16 15 15 13 13 12 13 15 16 14 12 12 12 12 11 11 10 9 8 8 8 9 9 8 8 8 9 9 9 9 8 8 8 7 8 8 8 8 7 8 8 8 8 8 7 5 4 4 4 4 4
10 12 12 12 13 14 16 15 15 16 16 16 16 15 14 12 12 13 15 17 16 13 11 11 12 11 10 9 9 9 9 8 8 8 8 8 8 8 9 9 9 9 9 8 8 7 7 7 7 7 8 8 8 9 9 9 8 6 6 6 6 6 6
11 12 12 12 12 14 15 15 15 16 15 15 15 14 14 13 13 14 16 15 13 12 12 12 12 11 10 9 9 8 8 8 9 9 8 9 9 9 9 9 9 9 9 9 8 8 8 7 6 6 7 7 7 8 9 10 9 6 6 8 9 8 8
12 13 13 13 13 13 14 14 14 15 14 15 16 15 15 16 16 16 17 15 12 12 12 11 10 10 10 9 9 8 8 8 9 9 9 9 9 9 10 9 8 8 9 9 9 8 7 7 7 7 7 7 7 8 9 10 9 7 7 8 8 8 8
13 14 14 14 14 14 14 14 14 14 14 15 17 18 17 17 18 18 17 14 12 12 11 10 10 10 10 9 8 9 9 8 8 9 9 9 10 10 10 9 8 8 8 9 8 7 6 7 7 8 8 8 9 10 10 9 8 7 7 7 7 8 8
13 14 14 15 15 15 16 16 15 15 16 16 18 19 18 18 18 17 14 12 12 12 12 12 12 11 9 9 9 9 9 8 7 8 8 8 9 10 9 9 8 8 8 8 7 6 6 6 7 8 8 8 9 10 10 9 8 6 5 6 8 8 8
13 14 14 15 16 17 17 17 16 16 17 17 18 19 18 17 16 14 13 13 12 12 12 12 12 11 9 9 9 8 8 7 7 7 7 8 8 8 8 8 8 8 8 8 7 7 7 7 7 8 8 8 9 9 10 9 6 4 4 6 8 9 9
11 13 14 15 15 17 17 17 16 16 17 18 18 17 16 15 14 13 13 13 12 12 12 11 10 10 10 10 9 8 8 8 7 7 7 7 6 6 7 8 8 8 7 7 7 6 7 7 8 8 7 8 9 9 9 7 5 3 5 7 8 9 9
11 13 15 16 16 17 18 18 17 17 17 18 17 16 16 15 13 13 13 12 11 11 10 10 9 10 10 10 9 9 8 8 7 7 7 7 6 6 7 7 7 7 6 6 6 5 6 7 7 7 7 8 9 9 8 6 3 3 5 7 8 8 8
14 14 16 17 17 18 19 18 17 18 18 17 16 16 16 14 13 13 12 11 10 9 9 9 8 9 9 9 9 8 8 8 8 7 7 6 6 6 6 6 6 6 6 6 5 5 6 6 6 7 7 7 8 8 7 4 3 2 3 4 6 7 8
15 16 17 18 18 19 20 19 19 19 18 16 16 16 15 14 13 13 12 10 9 9 9 7 7 8 8 8 7 6 7 9 8 8 8 7 6 6 5 5 6 6 6 6 6 6 6 6 7 7 6 6 6 7 6 4 3 2 2 3 5 7 8
16 16 17 19 20 20 21 21 21 21 18 16 17 16 14 14 13 12 12 10 10 9 8 7 7 7 7 7 7 6 6 7 7 8 9 8 7 6 5 6 6 6 6 6 6 7 6 6 6 6 5 6 6 6 6 5 6 4 2 4 6 8 9
17 17 18 19 20 22 23 23 23 22 19 17 17 16 15 15 14 12 11 10 10 9 8 7 7 7 7 7 7 6 6 6 6 7 8 8 7 5 5 5 6 6 6 6 6 6 6 5 5 5 5 6 8 8 7 6 8 7 5 6 8 10 10
17 17 18 19 20 22 23 24 25 23 19 18 19 17 16 16 14 13 11 10 9 9 8 8 8 7 7 7 6 6 7 7 7 7 7 6 6 5 4 5 6 5 5 5 5 5 5 6 7 8 8 6 7 10 10 8 10 9 8 9 9 8 10
17 16 18 19 20 22 24 25 26 23 20 20 19 17 16 16 15 14 12 11 10 10 9 8 8 8 7 7 7 7 7 7 7 7 6 6 6 5 4 5 5 4 4 4 5 5 6 7 8 9 7 5 6 9 10 10 10 8 7 6 6 6 7
16 17 19 20 22 25 27 26 24 23 22 22 19 16 17 17 16 15 14 13 12 11 10 9 8 8 8 8 8 8 7 7 7 7 7 6 6 5 5 4 4 4 4 5 6 7 7 8 9 8 6 5 6 7 8 8 7 5 4 6 6 5 6
17 17 20 23 24 26 27 25 23 23 22 21 18 17 18 18 17 17 15 15 14 12 11 10 9 9 9 9 9 9 8 8 7 7 7 7 7 6 5 5 4 5 5 6 8 8 9 9 9 8 7 7 7 7 8 7 6 4 5 7 8 6 5
18 18 21 24 25 26 26 25 22 21 20 19 17 17 19 19 18 17 16 16 15 12 11 11 10 10 10 10 10 10 9 9 8 8 8 8 8 8 7 7 6 6 6 7 8 9 9 10 9 8 8 8 7 7 7 7 7 7 6 7 8 8 5
20 21 21 24 25 25 26 25 22 20 19 17 15 15 17 18 17 17 17 17 15 12 11 11 11 11 11 11 11 11 10 9 9 9 8 9 9 8 8 8 7 7 6 7 7 8 9 10 9 9 9 9 9 8 6 7 8 9 9 9 9 10 8
24 23 22 22 22 23 24 23 21 20 18 16 14 14 16 18 18 18 18 17 15 13 11 11 11 12 12 12 12 11 10 10 9 9 9 9 8 7 7 6 5 5 5 6 7 7 9 11 11 11 10 10 10 9 8 8 10 11 12 12 12 13 12
23 23 23 21 19 20 21 21 20 19 17 16 15 15 18 19 19 19 19 18 17 14 13 12 12 12 12 12 11 10 9 9 8 7 6 5 5 5 5 5 5 5 5 6 8 9 10 12 13 13 13 13 12 11 10 10 12 13 15 15 16 16 16
22 22 23 22 21 20 20 19 19 19 19 18 17 17 19 20 21 21 20 19 18 16 15 14 13 13 13 12 11 10 9 8 7 5 4 4 4 5 6 6 6 6 7 7 9 10 12 12 13 14 14 14 14 14 14 13 13 14 15 17 18 19 19
22 22 22 22 23 23 22 19 17 17 18 19 19 19 21 23 24 23 21 21 20 18 16 15 15 14 14 14 12 11 9 8 6 5 4 4 5 5 6 6 7 7 7 7 7 9 11 12 13 14 15 15 16 17 17 17 16 16 16 17 18 19 20
22 22 23 22 22 23 22 19 17 17 17 18 19 21 22 23 24 24 23 22 22 21 19 18 17 16 15 15 14 13 12 10 8 7 6 6 6 6 6 6 7 7 6 6 6 7 8 10 11 13 15 17 18 19 19 19 20 19 18 18 19 20 21
22 22 23 24 23 22 21 20 19 18 17 17 19 20 21 22 23 23 23 23 23 23 22 20 19 18 17 16 15 14 13 13 11 10 10 10 10 9 8 8 8 8 9 9 9 8 8 9 10 12 14 17 20 21 20 20 21 21 20 19 19 19 20
25 24 24 25 24 23 23 22 21 19 18 19 19 18 18 18 20 21 22 23 24 24 23 21 20 19 18 17 16 16 16 15 14 13 13 13 13 12 11 11 11 12 13 12 11 11 11 11 12 13 14 16 20 22 22 21 22 22 21 20 20 20 21
21 23 24 25 25 25 25 24 22 22 21 20 20 20 19 17 17 18 18 19 21 21 21 21 21 21 20 19 18 17 16 14 14 14 15 16 16 15 15 14 14 15 16 15 15 14 14 15 16 16 16 17 18 19 21 21 22 22 23 22 22 22 22
18 18 20 21 21 23 24 24 24 26 26 25 24 24 23 22 21 21 20 19 19 19 19 20 21 22 22 21 20 19 17 15 14 15 16 17 18 18 18 17 16 16 17 17 17 17 16 17 17 17 17 18 18 18 20 21 22 23 24 25 25 24 25
14 17 18 18 18 19 18 17 18 20 22 23 23 23 22 21 20 20 22 23 23 23 22 22 22 22 23 24 23 21 19 18 18 19 20 20 20 20 20 19 18 18 18 18 18 18 18 19 18 17 16 16 17 17 19 21 23 24 25 26 26 26 26
7 11 14 14 15 15 14 13 11 12 13 14 15 16 15 14 14 14 16 19 22 24 25 25 25 24 24 24 23 22 21 22 22 22 22 22 20 19 19 19 19 19 19 19 19 19 19 19 18 17 17 16 16 16 18 20 22 23 25 25 27 28 28
12 12 13 13 12 12 13 13 13 12 12 11 10 10 10 10 11 12 13 15 18 21 23 24 26 26 25 24 24 25 25 25 23 22 22 22 19 17 17 18 18 19 19 19 19 18 18 18 17 17 18 19 19 19 20 21 22 24 25 26 28 29 29
14 15 14 14 14 13 12 12 13 13 11 11 11 10 10 11 12 12 12 13 15 18 20 22 24 26 26 26 27 28 29 27 24 21 20 19 17 17 17 18 19 19 20 20 20 20 20 21 21 21 21 21 22 23 24 25 26 27 28 29 29 30 30
10 11 12 13 13 14 14 14 15 15 13 12 12 11 12 13 13 12 12 13 14 16 18 20 22 23 24 24 25 25 25 24 21 19 17 17 17 18 19 19 20 20 20 21 22 23 24 24 24 25 25 25 26 27 28 29 30 31 32 32 32 33 33
8 9 11 11 10 12 13 12 14 16 16 15 13 12 11 12 11 11 12 12 11 10 10 11 12 13 15 16 16 16 15 14 14 15 15 16 17 18 19 19 20 21 22 23 24 25 26 27 27 27 28 28 29 30 31 32 33 33 34 35 35 35 36
9 9 10 10 9 10 10 9 10 14 15 13 12 11 11 10 10 11 11 9 7 6 5 5 6 7 9 10 11 11 10 11 12 14 16 17 18 19 21 22 23 24 25 26 27 27 28 29 29 29 29 29 30 31 31 32 33 34 35 35 36 36 37
Wind_Direction
228 204 198 195 194 196 198 198 197 196 193 192 192 189 189 191 194 197 198 198 197 197 194 191 194 200 199 201 211 211 192 183 190 194 196 196 198 200 197 194 190 188 192 193 193 190 187 193 193 186 186 190 189 185 188 200 209 210 209 216 219 215 212
233 212 204 199 195 195 197 198 198 195 193 195 196 193 194 194 196 206 209 202 198 197 193 188 189 194 194 194 202 204 189 185 191 195 196 194 194 198 195 192 193 195 199 200 200 195 184 187 196 194 188 187 190 191 193 201 210 217 222 223 214 208 211
239 220 206 198 195 194 196 197 194 192 195 197 198 198 196 193 193 203 212 207 198 194 190 184 186 191 191 191 195 195 191 190 190 191 198 197 191 193 191 190 197 202 205 207 208 208 199 194 196 199 198 196 200 205 205 210 218 218 212 205 198 199 212
234 220 206 197 193 194 196 195 192 192 196 199 199 200 195 190 191 198 209 207 193 187 188 185 189 193 190 192 193 190 188 187 185 186 194 200 196 191 189 192 199 202 204 208 212 217 215 208 202 205 208 204 205 214 217 223 228 216 203 209 218 227 234
223 211 202 197 193 195 196 195 195 195 199 200 199 200 193 188 192 198 208 205 186 184 193 192 194 194 193 198 197 194 191 186 187 189 193 201 198 192 192 195 200 203 206 209 213 215 215 216 210 205 210 209 210 219 221 225 231 223 210 221 231 235 236
209 201 194 195 194 197 200 198 199 199 200 200 198 198 192 187 191 197 200 197 186 192 197 194 196 194 192 197 196 197 199 193 194 196 197 200 198 196 198 198 200 207 211 213 215 215 218 226 221 209 211 212 210 217 223 227 229 218 210 223 232 228 225
197 199 193 193 195 199 202 201 202 203 202 197 194 196 192 187 191 195 196 192 187 194 197 197 202 200 195 192 191 197 200 197 199 198 195 194 194 198 201 200 198 201 207 212 217 222 227 230 226 218 216 215 211 213 223 230 226 210 204 215 220 217 220
189 199 198 193 197 199 198 200 206 207 203 195 190 193 193 192 193 194 195 193 192 197 200 199 204 208 204 195 193 200 200 196 196 194 193 192 194 198 201 203 196 189 195 205 215 226 221 211 210 212 215 219 219 220 225 230 225 213 205 208 210 211 219
191 199 205 200 201 201 194 196 206 208 202 196 192 193 195 194 193 191 194 197 199 202 205 205 203 203 205 202 200 203 202 197 193 192 191 191 192 192 194 198 192 186 191 201 214 217 201 195 203 210 214 221 229 235 237 238 238 228 207 213 218 215 218
205 201 210 208 207 204 196 195 204 205 200 199 197 195 196 194 191 190 193 199 201 203 207 209 202 196 197 199 198 201 202 200 198 195 189 187 186 182 186 190 186 184 187 194 204 202 192 198 212 214 215 223 234 245 250 255 262 224 187 201 218 219 221
217 209 210 208 207 207 203 202 207 204 200 201 198 194 195 192 189 191 191 192 195 196 199 199 192 191 194 192 193 198 201 204 207 202 192 189 187 182 186 188 181 178 181 188 195 195 194 202 212 214 214 223 237 247 252 260 259 204 179 192 211 215 222
214 210 206 205 204 206 209 210 209 203 199 202 198 192 191 185 186 190 185 183 183 181 185 186 177 180 188 191 192 194 197 204 212 208 197 191 191 192 193 193 185 178 182 191 195 199 205 207 212 217 217 223 237 249 258 264 244 198 161 182 214 220 224
209 206 203 204 204 206 210 211 208 202 198 197 195 189 184 181 185 184 175 174 171 168 179 177 159 165 179 186 189 185 190 199 205 205 200 193 194 199 199 198 190 181 184 194 198 206 211 206 208 215 222 233 248 260 271 277 269 233 147 176 228 237 235
208 206 202 202 206 210 208 205 205 202 194 191 191 186 180 181 184 177 168 168 166 167 174 163 151 161 166 168 176 174 177 187 190 191 191 191 193 197 194 194 193 189 193 200 203 206 206 203 209 213 218 232 248 262 269 274 276 272 213 201 232 246 251
207 206 204 203 205 206 204 204 205 198 189 187 187 182 179 180 178 173 166 165 166 168 165 156 154 158 155 158 166 157 150 156 164 170 178 182 188 193 187 185 188 192 203 212 212 207 199 201 210 213 218 228 243 256 258 256 263 268 255 239 244 254 262
204 202 205 202 200 201 203 204 199 190 184 186 184 179 178 177 172 170 167 166 167 165 160 158 157 158 160 163 156 143 138 140 145 155 163 170 178 186 186 184 187 192 204 214 210 206 210 216 214 212 216 226 245 257 257 251 256 263 262 258 261 264 265
206 202 201 196 195 195 193 192 189 184 184 185 181 177 177 176 171 170 171 169 167 165 163 162 161 165 168 162 152 146 145 144 146 148 150 159 174 182 184 188 198 203 202 198 197 206 223 237 242 237 233 235 248 254 258 260 264 267 268 273 288 291 277
206 201 197 194 191 185 181 184 186 185 186 184 180 179 180 179 175 173 175 173 170 170 170 167 169 171 167 161 156 153 153 152 148 142 138 150 171 180 180 186 205 213 198 187 198 210 220 238 259 267 269 276 277 272 273 276 280 289 302 305 310 309 292
202 199 196 192 187 182 182 188 189 186 185 182 181 184 183 181 179 178 178 176 174 174 172 173 176 173 167 163 159 157 158 156 151 146 142 151 167 174 175 180 197 206 195 187 199 210 216 229 248 262 273 285 295 297 295 294 300 312 316 313 312 308 290
194 193 194 190 187 187 187 188 186 184 183 183 185 186 185 185 184 182 180 179 179 176 174 177 179 177 173 169 165 164 162 162 163 158 155 166 177 177 179 181 187 195 193 190 202 214 224 233 243 252 264 275 280 284 293 299 300 300 300 298 301 302 292
187 187 190 190 190 191 190 187 186 186 185 187 189 189 190 192 191 188 184 183 183 180 179 181 183 184 180 174 173 171 168 172 176 172 176 188 192 191 193 191 193 200 201 198 204 215 225 234 244 254 265 273 273 273 281 288 288 289 289 285 285 293 296
182 183 186 190 192 194 194 194 195 194 192 194 195 196 199 199 199 196 191 188 189 187 184 185 186 188 186 183 183 180 180 186 188 188 196 204 205 207 209 204 203 212 221 222 222 219 219 225 231 238 248 258 265 266 264 269 276 281 285 286 285 290 296
179 181 185 191 196 199 201 203 205 205 205 205 203 203 204 204 205 203 196 193 196 193 189 189 189 190 191 191 191 190 193 200 204 205 214 228 242 254 253 240 227 226 235 243 242 235 229 230 232 232 234 238 245 250 250 253 262 269 277 284 288 292 295
182 184 188 194 201 205 206 207 209 210 213 215 211 208 207 207 209 208 201 199 202 199 196 196 194 192 193 195 195 196 200 206 211 216 228 248 272 294 294 271 256 258 262 261 257 251 244 241 241 241 240 239 241 244 244 244 245 250 259 268 277 285 290
186 187 190 197 204 209 211 210 210 211 215 218 216 210 208 211 213 211 206 204 206 205 203 203 202 199 198 198 197 199 202 204 209 221 233 243 262 281 276 260 260 273 278 272 271 271 263 254 251 251 251 251 250 250 249 247 245 242 242 249 258 267 275
192 190 191 198 206 210 213 213 212 212 213 216 215 211 212 216 217 216 212 210 211 212 210 208 207 205 205 204 203 204 208 209 214 226 230 233 247 264 267 263 266 277 284 283 283 288 281 269 261 260 260 259 258 258 258 257 256 251 247 246 248 252 259
198 198 194 197 203 206 209 209 209 209 208 210 210 210 214 219 221 220 218 215 215 216 215 212 210 210 213 213 209 209 214 217 221 232 238 237 243 254 267 276 283 290 293 293 293 293 289 282 274 270 267 262 257 256 257 260 261 260 257 255 255 256 259
201 204 202 202 203 203 205 206 207 205 204 207 209 207 212 220 224 227 226 223 223 222 220 216 213 213 217 219 216 216 220 221 226 237 246 250 253 261 271 280 288 291 289 288 290 289 287 286 283 279 274 268 259 252 250 253 256 259 260 260 259 260 262
211 212 212 209 206 206 207 206 207 207 205 206 207 206 208 213 219 225 227 228 229 230 228 225 221 220 222 223 222 225 229 230 234 243 252 257 261 267 272 275 278 280 282 286 290 289 285 283 283 281 278 274 268 259 253 252 255 258 262 262 261 262 263
216 215 215 212 210 213 214 211 211 214 214 214 215 215 216 218 221 226 228 228 229 228 229 230 229 229 230 228 226 229 234 237 240 247 253 257 262 266 268 269 271 276 283 290 292 289 285 282 283 284 281 276 272 266 258 255 256 258 262 264 264 263 264
211 204 206 210 212 217 220 216 215 216 218 220 223 225 227 228 231 234 234 233 233 231 230 231 234 236 237 236 234 234 238 246 251 251 251 254 260 265 267 269 272 279 286 288 288 286 285 285 285 286 285 281 276 271 264 261 260 261 263 265 265 266 266
183 189 190 195 201 204 206 208 209 207 205 211 218 221 222 223 227 231 234 237 238 238 236 234 236 238 240 241 241 240 247 258 261 257 255 259 263 263 264 269 275 280 283 284 285 285 284 285 285 284 284 282 279 275 270 269 268 267 267 267 268 270 271
149 161 163 167 177 182 185 192 195 193 193 197 202 205 206 209 213 219 227 235 239 242 242 238 237 240 241 243 243 245 254 264 265 260 261 264 263 260 262 268 272 275 277 279 281 280 278 280 280 279 279 278 277 276 275 275 275 274 273 272 272 274 275
152 156 157 160 162 159 164 177 180 179 185 192 194 199 204 206 207 211 218 226 232 238 240 238 239 242 243 245 247 251 260 265 262 259 261 262 262 264 267 270 271 273 276 277 277 277 279 281 281 280 279 278 277 278 278 277 277 276 276 275 275 276 277
157 158 159 162 163 159 161 170 175 176 179 185 193 202 202 198 198 201 207 213 219 225 230 232 235 239 242 246 250 254 259 259 253 250 253 256 261 266 268 270 272 274 275 275 275 277 279 281 282 282 283 282 282 282 281 281 280 279 279 278 278 277 277
176 179 171 169 173 173 170 170 175 177 175 173 174 176 177 180 186 193 196 198 203 211 220 224 228 231 233 237 243 248 252 251 248 250 255 259 264 267 269 270 272 273 273 274 275 277 279 281 282 283 283 283 283 283 282 281 280 279 278 278 277 276 275
171 174 167 169 180 184 179 172 171 172 173 173 172 172 177 187 198 203 204 205 210 219 226 223 220 218 220 227 239 248 254 257 259 262 265 268 270 272 274 275 276 278 279 280 281 282 282 283 283 283 284 283 283 282 281 281 280 280 279 278 277 275 273
Height
3134 3134 3133 3133 3133 3134 3136 3137 3139 3140 3141 3142 3144 3145 3146 3148 3149 3150 3150 3152 3154 3156 3157 3158 3159 3159 3161 3162 3161 3162 3162 3164 3165 3166 3167 3168 3168 3169 3169 3170 3170 3171 3172 3172 3172 3172 3172 3172 3172 3172 3172 3172 3173 3173 3174 3174 3174 3174 3175 3175 3175 3175 3175
3133 3133 3133 3133 3133 3134 3135 3136 3138 3139 3140 3141 3143 3144 3146 3147 3148 3149 3150 3151 3152 3154 3155 3156 3157 3159 3160 3161 3161 3161 3161 3162 3164 3165 3166 3166 3167 3168 3169 3169 3170 3170 3171 3171 3172 3172 3172 3172 3172 3172 3172 3172 3172 3173 3174 3174 3174 3174 3174 3175 3175 3175 3175
3131 3132 3132 3133 3134 3134 3134 3135 3137 3138 3139 3141 3142 3143 3144 3145 3147 3148 3150 3150 3151 3152 3153 3154 3155 3156 3158 3159 3159 3160 3160 3162 3163 3164 3164 3165 3166 3167 3168 3169 3169 3170 3170 3170 3171 3171 3171 3171 3171 3172 3172 3172 3172 3173 3173 3173 3173 3174 3175 3175 3175 3175 3176
3130 3130 3131 3132 3133 3134 3134 3135 3137 3138 3138 3140 3141 3142 3143 3144 3146 3147 3149 3151 3151 3151 3152 3153 3154 3155 3156 3157 3158 3159 3160 3161 3161 3162 3163 3163 3164 3166 3167 3168 3168 3169 3169 3170 3170 3170 3171 3171 3171 3171 3172 3172 3172 3172 3173 3173 3173 3174 3175 3175 3175 3176 3176
3128 3129 3130 3131 3132 3133 3134 3135 3137 3137 3138 3139 3140 3141 3142 3144 3145 3147 3149 3151 3151 3150 3151 3152 3154 3155 3155 3156 3157 3158 3159 3159 3160 3161 3162 3162 3163 3164 3166 3166 3167 3168 3168 3169 3169 3170 3171 3171 3171 3171 3171 3172 3172 3172 3172 3172 3173 3174 3175 3175 3175 3175 3176
3126 3128 3129 3130 3131 3133 3134 3135 3136 3137 3138 3139 3139 3140 3142 3143 3144 3146 3148 3149 3149 3149 3150 3152 3153 3154 3155 3155 3156 3157 3157 3158 3159 3160 3161 3161 3162 3163 3164 3165 3166 3167 3168 3168 3169 3170 3170 3170 3171 3171 3171 3171 3171 3171 3171 3171 3172 3174 3174 3174 3174 3175 3175
3123 3126 3128 3130 3131 3132 3133 3134 3135 3137 3138 3139 3139 3140 3141 3142 3144 3145 3146 3147 3148 3149 3150 3151 3152 3153 3154 3154 3155 3156 3156 3157 3158 3159 3160 3161 3162 3162 3163 3164 3166 3166 3167 3167 3168 3169 3169 3170 3170 3170 3170 3170 3170 3171 3171 3171 3172 3173 3174 3174 3174 3174 3174
3121 3125 3127 3129 3131 3133 3133 3134 3135 3136 3137 3138 3139 3140 3141 3142 3143 3144 3145 3146 3147 3148 3149 3150 3151 3151 3152 3153 3154 3155 3156 3157 3157 3158 3159 3160 3161 3162 3162 3163 3165 3166 3166 3166 3167 3168 3169 3169 3169 3169 3169 3170 3170 3170 3170 3171 3172 3172 3173 3173 3173 3173 3173
3121 3123 3126 3128 3131 3132 3133 3134 3135 3135 3137 3138 3139 3140 3141 3142 3143 3144 3144 3145 3146 3147 3148 3149 3150 3151 3152 3153 3153 3155 3155 3156 3157 3158 3159 3160 3160 3161 3162 3163 3164 3165 3165 3166 3166 3167 3168 3168 3168 3168 3169 3169 3169 3169 3169 3170 3171 3172 3172 3171 3172 3172 3173
3121 3122 3124 3126 3129 3130 3132 3133 3134 3135 3136 3137 3138 3139 3141 3142 3143 3143 3144 3145 3146 3147 3147 3148 3149 3150 3151 3152 3153 3154 3155 3156 3156 3157 3158 3159 3160 3161 3162 3162 3163 3164 3165 3165 3165 3166 3167 3167 3167 3168 3168 3168 3168 3168 3168 3169 3170 3171 3172 3171 3170 3171 3171
3121 3121 3122 3124 3126 3128 3130 3131 3133 3134 3135 3136 3137 3139 3140 3141 3142 3143 3144 3144 3145 3146 3147 3148 3149 3150 3151 3152 3153 3154 3154 3155 3156 3157 3158 3158 3159 3160 3161 3162 3162 3163 3164 3164 3164 3165 3166 3166 3167 3167 3167 3168 3167 3167 3167 3168 3169 3170 3170 3170 3170 3170 3171
3120 3120 3121 3123 3124 3126 3127 3129 3131 3132 3133 3135 3136 3138 3139 3140 3141 3142 3143 3144 3145 3146 3147 3148 3149 3150 3151 3152 3153 3153 3154 3155 3156 3157 3158 3158 3159 3160 3161 3162 3162 3163 3163 3164 3164 3164 3165 3166 3166 3166 3166 3167 3166 3166 3166 3167 3168 3169 3169 3169 3169 3169 3170
3119 3119 3120 3121 3123 3124 3125 3127 3129 3130 3132 3133 3135 3136 3138 3139 3140 3141 3142 3144 3145 3146 3147 3148 3149 3150 3151 3151 3152 3153 3154 3155 3155 3156 3157 3158 3159 3159 3160 3161 3161 3162 3163 3163 3164 3164 3164 3165 3165 3165 3165 3165 3165 3164 3165 3165 3166 3168 3168 3168 3168 3168 3169
3117 3117 3118 3120 3121 3123 3124 3126 3128 3129 3131 3132 3134 3136 3137 3139 3140 3141 3142 3143 3145 3146 3147 3148 3149 3149 3150 3151 3152 3153 3153 3154 3155 3156 3157 3157 3158 3159 3160 3160 3161 3161 3162 3163 3163 3164 3164 3164 3164 3165 3165 3164 3164 3163 3164 3164 3164 3165 3167 3167 3167 3167 3168
3115 3116 3117 3118 3120 3121 3123 3125 3127 3128 3129 3131 3133 3135 3137 3138 3139 3141 3142 3143 3144 3145 3146 3148 3148 3149 3150 3151 3151 3152 3153 3154 3154 3155 3156 3156 3157 3158 3159 3160 3161 3161 3162 3162 3163 3163 3164 3164 3164 3164 3164 3164 3163 3163 3163 3163 3163 3164 3165 3166 3166 3166 3166
3114 3115 3115 3117 3118 3120 3122 3124 3125 3127 3129 3131 3132 3134 3136 3137 3139 3140 3141 3143 3144 3145 3146 3147 3148 3149 3150 3150 3151 3152 3152 3153 3154 3154 3155 3156 3157 3158 3159 3160 3161 3161 3162 3162 3162 3163 3163 3163 3163 3163 3163 3163 3163 3162 3162 3162 3162 3163 3164 3164 3164 3164 3164
3113 3113 3114 3115 3117 3119 3120 3122 3124 3126 3128 3130 3132 3133 3135 3136 3138 3139 3141 3143 3144 3145 3146 3147 3148 3149 3149 3150 3151 3151 3152 3152 3153 3154 3155 3156 3157 3157 3158 3159 3160 3161 3162 3162 3162 3162 3162 3162 3162 3162 3162 3162 3162 3162 3161 3161 3161 3162 3162 3162 3162 3162 3162
3111 3111 3113 3114 3116 3118 3120 3122 3124 3126 3128 3129 3131 3132 3134 3136 3137 3139 3141 3142 3144 3145 3146 3147 3148 3148 3149 3150 3150 3151 3151 3152 3152 3153 3154 3155 3156 3157 3158 3159 3159 3160 3161 3161 3161 3161 3161 3161 3160 3160 3161 3161 3161 3161 3161 3161 3161 3161 3161 3161 3161 3161 3161
3108 3109 3111 3113 3115 3117 3119 3122 3124 3126 3127 3129 3130 3132 3134 3135 3137 3138 3140 3142 3143 3145 3146 3146 3147 3148 3148 3149 3150 3150 3151 3151 3152 3152 3153 3154 3155 3155 3156 3157 3158 3158 3159 3160 3160 3160 3160 3160 3159 3159 3159 3159 3159 3160 3160 3160 3160 3159 3160 3159 3160 3160 3160
3106 3108 3109 3111 3114 3117 3119 3122 3123 3125 3127 3128 3130 3131 3133 3134 3136 3137 3139 3141 3143 3144 3145 3146 3146 3147 3148 3148 3149 3150 3150 3150 3151 3151 3152 3153 3153 3154 3155 3156 3156 3157 3158 3159 3159 3159 3159 3159 3159 3159 3159 3159 3159 3159 3159 3159 3159 3159 3159 3159 3159 3159 3160
3105 3107 3109 3111 3114 3116 3118 3120 3122 3124 3126 3128 3129 3131 3132 3133 3135 3136 3138 3140 3142 3143 3144 3145 3146 3146 3147 3148 3148 3149 3149 3150 3150 3150 3151 3151 3152 3153 3154 3155 3156 3156 3157 3158 3158 3158 3159 3159 3159 3159 3159 3159 3159 3158 3158 3158 3158 3158 3159 3159 3159 3159 3159
3104 3106 3109 3111 3114 3116 3117 3119 3121 3123 3125 3127 3128 3130 3131 3132 3133 3135 3137 3139 3140 3142 3143 3144 3145 3146 3146 3147 3148 3148 3149 3149 3149 3149 3150 3151 3152 3153 3153 3154 3155 3156 3157 3157 3158 3158 3158 3158 3158 3158 3158 3158 3158 3158 3158 3157 3157 3157 3158 3158 3158 3158 3158
3103 3105 3108 3110 3112 3114 3116 3118 3120 3122 3124 3125 3127 3128 3129 3131 3131 3133 3136 3138 3139 3141 3142 3143 3144 3145 3145 3146 3147 3148 3148 3148 3149 3150 3150 3151 3152 3153 3153 3154 3154 3155 3155 3156 3156 3157 3157 3157 3157 3157 3157 3157 3157 3157 3157 3157 3157 3156 3156 3156 3156 3156 3157
3102 3104 3107 3109 3111 3112 3114 3116 3119 3121 3122 3124 3125 3127 3128 3129 3129 3132 3135 3137 3138 3139 3141 3142 3143 3144 3145 3146 3146 3147 3147 3148 3149 3150 3150 3151 3151 3152 3153 3153 3153 3154 3154 3154 3154 3154 3155 3155 3155 3156 3156 3156 3155 3155 3155 3156 3155 3155 3155 3155 3155 3155 3155
3101 3103 3106 3108 3110 3112 3113 3116 3118 3119 3121 3122 3124 3126 3126 3127 3128 3131 3134 3136 3137 3138 3140 3141 3141 3142 3143 3144 3145 3146 3146 3147 3148 3149 3149 3150 3150 3151 3152 3152 3152 3153 3153 3152 3152 3152 3152 3152 3153 3153 3154 3154 3154 3154 3154 3153 3153 3153 3153 3153 3153 3153 3153
3100 3102 3105 3107 3109 3111 3113 3115 3117 3118 3119 3121 3123 3124 3125 3125 3127 3130 3133 3135 3136 3137 3138 3139 3140 3141 3142 3143 3144 3144 3145 3146 3146 3147 3148 3148 3149 3150 3150 3151 3151 3151 3151 3151 3151 3151 3151 3150 3151 3151 3151 3151 3151 3152 3152 3152 3152 3151 3151 3151 3152 3152 3152
3101 3102 3104 3106 3107 3109 3112 3114 3115 3117 3118 3120 3121 3122 3123 3124 3126 3129 3131 3133 3135 3136 3137 3138 3139 3139 3140 3141 3142 3142 3143 3144 3144 3145 3146 3147 3147 3148 3149 3150 3149 3149 3150 3149 3149 3149 3149 3149 3148 3148 3148 3148 3148 3148 3149 3149 3149 3149 3149 3149 3149 3150 3150
3100 3101 3103 3104 3105 3108 3110 3112 3113 3115 3116 3118 3119 3121 3122 3123 3125 3127 3129 3132 3133 3134 3135 3136 3137 3138 3138 3139 3140 3140 3140 3141 3142 3143 3143 3144 3145 3146 3147 3147 3147 3147 3147 3147 3147 3147 3146 3146 3146 3146 3145 3145 3144 3145 3145 3146 3146 3146 3146 3146 3146 3146 3147
3098 3099 3101 3103 3104 3106 3108 3110 3112 3113 3115 3116 3117 3119 3120 3122 3123 3125 3128 3130 3132 3133 3134 3135 3135 3136 3136 3137 3138 3138 3138 3139 3140 3141 3141 3142 3143 3144 3144 3145 3145 3145 3144 3144 3144 3144 3144 3143 3143 3143 3142 3142 3142 3142 3143 3143 3144 3144 3144 3143 3143 3143 3142
3097 3098 3099 3101 3103 3104 3106 3108 3110 3112 3113 3114 3115 3117 3119 3120 3122 3124 3126 3128 3130 3131 3132 3133 3134 3134 3135 3135 3135 3136 3136 3137 3138 3138 3139 3139 3140 3140 3141 3142 3142 3142 3141 3141 3141 3141 3140 3140 3140 3140 3139 3139 3139 3139 3140 3140 3140 3140 3141 3140 3140 3139 3139
3096 3098 3099 3100 3102 3103 3104 3106 3108 3109 3111 3112 3114 3116 3117 3119 3121 3122 3124 3126 3127 3129 3130 3131 3132 3132 3132 3133 3133 3134 3135 3135 3136 3136 3135 3136 3137 3138 3138 3139 3139 3138 3138 3138 3137 3137 3137 3137 3137 3136 3136 3136 3136 3136 3136 3136 3137 3137 3137 3136 3136 3136 3135
3095 3096 3098 3099 3101 3102 3104 3105 3107 3108 3110 3111 3113 3114 3115 3117 3119 3120 3121 3123 3124 3126 3127 3128 3129 3129 3130 3131 3131 3132 3132 3133 3133 3132 3132 3133 3134 3136 3136 3136 3136 3135 3135 3135 3135 3134 3134 3134 3133 3133 3133 3133 3133 3133 3133 3133 3133 3133 3133 3132 3132 3131 3131
3094 3095 3097 3098 3100 3101 3103 3104 3106 3107 3109 3110 3112 3113 3114 3116 3117 3118 3119 3120 3121 3122 3123 3124 3125 3126 3127 3128 3128 3129 3129 3130 3129 3129 3129 3130 3132 3133 3133 3133 3133 3133 3132 3132 3132 3132 3131 3131 3131 3130 3130 3130 3130 3130 3130 3129 3129 3129 3128 3128 3128 3127 3126
3095 3096 3096 3098 3099 3101 3102 3103 3105 3106 3108 3109 3110 3111 3112 3114 3115 3116 3117 3118 3119 3119 3120 3121 3122 3123 3124 3125 3125 3126 3126 3126 3126 3127 3127 3128 3129 3129 3130 3130 3130 3130 3129 3129 3128 3128 3128 3127 3127 3127 3127 3127 3126 3126 3126 3126 3125 3125 3124 3123 3123 3122 3121
3097 3097 3098 3099 3100 3100 3101 3102 3103 3105 3106 3107 3109 3110 3111 3112 3113 3114 3114 3115 3116 3116 3117 3118 3119 3120 3121 3122 3122 3123 3123 3123 3124 3125 3125 3126 3126 3126 3127 3127 3127 3126 3126 3125 3125 3125 3124 3124 3123 3123 3123 3122 3122 3122 3121 3121 3120 3119 3118 3118 3117 3117 3116
3098 3098 3099 3100 3101 3101 3101 3102 3103 3103 3104 3106 3107 3109 3109 3110 3111 3112 3113 3113 3114 3115 3116 3117 3117 3118 3119 3120 3120 3121 3121 3122 3122 3123 3123 3124 3124 3124 3124 3124 3123 3123 3122 3122 3121 3121 3120 3120 3119 3119 3118 3118 3117 3117 3116 3115 3114 3114 3113 3112 3111 3111 3111
3098 3098 3099 3100 3101 3102 3102 3102 3103 3104 3104 3105 3106 3107 3108 3110 3110 3111 3112 3113 3114 3115 3116 3117 3117 3117 3118 3118 3119 3120 3120 3120 3121 3121 3121 3121 3121 3121 3120 3120 3119 3118 3118 3118 3117 3116 3116 3115 3115 3114 3114 3114 3113 3112 3111 3110 3108 3107 3107 3106 3106 3105 3104